Location: *
(52.2090°N, 4.1550°W)
Time: 20:55:13
(UTC+00:00)

USA 215 - Pass Details

Date: 19 July 2019
Orbit: 1102 x 1106 km, 123.0° (Epoch: 24 August)

Event Time Altitude Azimuth Distance (km) Brightness Sun altitude
Rises 22:52:50 0° 70° (ENE) 3,924 6.1 -14.4°
Reaches altitude 10° 22:55:20 10° 68° (ENE) 2,965 5.5 -14.6°
Maximum altitude 23:01:47 64° 349° (N) 1,213 3.8 -14.9°
Drops below altitude 10° 23:08:14 10° 270° (W) 2,963 5.7 -15.2°
Sets 23:10:44 0° 267° (W) 3,921 6.4 -15.3°
